TJS-7

Last updated on Tue Oct 15 2024 00:02:42 GMT+0000 (Coordinated Universal Time)

1 49115U 21077A 24288.39684709 -.00000126 00000+0 00000+0 0 9995 2 49115 0.2265 270.7209 0002926 264.7656 251.3929 1.00272547 3449
UTC large
Height (km)
Speed (km/s)
/
Latitude / Longitude
Inclination (degrees)
Orbital Period (minutes)
Azimuth
Elevation
Range (km)
Doppler Factor

Next 0 passes for location: London (51.5072 / 0.1276)

Sorry there are no passes over London.